Time,TemperatureF,DewpointF,PressureIn,WindDirection,WindDirectionDegrees,WindSpeedMPH,WindSpeedGustMPH,Humidity,HourlyPrecipIn,Conditions,Clouds,dailyrainin,SolarRadiationWatts/m^2,SoftwareType,DateUTC
2013-05-24 00:00:00,42.4,37.6,30.10,NNW,329,0.0,0.0,83,0.00,RA,,0.00,0.0,WeatherDisplay:10.37,2013-05-24 08:00:00,
2013-05-24 00:05:00,42.0,37.2,30.10,NNW,329,0.0,0.0,83,0.00,RA,,0.00,0.0,WeatherDisplay:10.37,2013-05-24 08:05:00,
2013-05-24 00:10:00,41.5,36.7,30.11,NNW,329,0.0,0.0,83,0.00,CLR,,0.00,0.0,WeatherDisplay:10.37,2013-05-24 08:10:00,
2013-05-24 00:15:00,40.9,36.7,30.11,NNW,329,1.2,1.2,85,0.00,CLR,,0.00,0.0,WeatherDisplay:10.37,2013-05-24 08:15:00,
2013-05-24 00:20:00,40.5,36.6,30.11,NNW,329,0.0,0.0,86,0.00,CLR,,0.00,0.0,WeatherDisplay:10.37,2013-05-24 08:20:00,
2013-05-24 00:25:00,40.1,36.2,30.11,NNW,329,0.0,0.0,86,0.00,CLR,,0.00,0.0,WeatherDisplay:10.37,2013-05-24 08:25:00,
2013-05-24 00:30:00,39.8,36.2,30.10,NNW,329,0.0,0.0,87,0.00,CLR,,0.00,0.0,WeatherDisplay:10.37,2013-05-24 08:30:00,
2013-05-24 00:35:00,39.6,36.0,30.10,NNW,329,0.0,0.0,87,0.00,CLR,,0.00,0.0,WeatherDisplay:10.37,2013-05-24 08:35:00,
2013-05-24 00:40:00,39.4,36.1,30.10,NNW,329,0.0,0.0,88,0.00,CLR,,0.00,0.0,WeatherDisplay:10.37,2013-05-24 08:40:00,
2013-05-24 00:45:00,39.1,35.8,30.10,NNW,329,0.0,0.0,88,0.00,CLR,,0.00,0.0,WeatherDisplay:10.37,2013-05-24 08:45:00,
2013-05-24 00:50:00,38.9,35.9,30.10,NNW,329,0.0,0.0,89,0.00,CLR,,0.00,0.0,WeatherDisplay:10.37,2013-05-24 08:50:00,
2013-05-24 00:55:00,38.7,35.7,30.10,NNW,329,0.0,0.0,89,0.00,CLR,,0.00,0.0,WeatherDisplay:10.37,2013-05-24 08:55:00,
2013-05-24 01:00:00,38.5,35.5,30.10,NNW,329,0.0,0.0,89,0.00,CLR,,0.00,0.0,WeatherDisplay:10.37,2013-05-24 09:00:00,
2013-05-24 01:05:00,38.3,35.6,30.10,NNW,329,0.0,0.0,90,0.00,CLR,,0.00,0.0,WeatherDisplay:10.37,2013-05-24 09:05:00,
2013-05-24 01:11:00,38.1,35.4,30.10,NNW,329,0.0,0.0,90,0.00,CLR,,0.00,0.0,WeatherDisplay:10.37,2013-05-24 09:11:00,
2013-05-24 01:16:00,37.9,35.2,30.10,NNW,329,0.0,0.0,90,0.00,CLR,,0.00,0.0,WeatherDisplay:10.37,2013-05-24 09:16:00,
2013-05-24 01:21:00,37.6,34.9,30.10,NNW,329,0.0,0.0,90,0.00,CLR,,0.00,0.0,WeatherDisplay:10.37,2013-05-24 09:21:00,
2013-05-24 01:26:00,37.4,34.7,30.10,NNW,329,1.2,1.2,90,0.00,CLR,,0.00,0.0,WeatherDisplay:10.37,2013-05-24 09:26:00,
2013-05-24 01:31:00,37.2,34.5,30.10,NNW,329,0.0,0.0,90,0.00,CLR,,0.00,0.0,WeatherDisplay:10.37,2013-05-24 09:31:00,
2013-05-24 01:36:00,37.2,35.1,30.10,SSE,166,3.5,3.5,92,0.00,CLR,,0.00,0.0,WeatherDisplay:10.37,2013-05-24 09:36:00,
2013-05-24 01:41:00,37.4,35.6,30.10,SSE,166,0.0,0.0,93,0.00,CLR,,0.00,0.0,WeatherDisplay:10.37,2013-05-24 09:41:00,
2013-05-24 01:46:00,37.5,35.7,30.10,South,169,1.2,1.2,93,0.00,CLR,,0.00,0.0,WeatherDisplay:10.37,2013-05-24 09:46:00,
2013-05-24 01:51:00,37.4,35.6,30.10,South,169,0.0,0.0,93,0.00,CLR,,0.00,0.0,WeatherDisplay:10.37,2013-05-24 09:51:00,
2013-05-24 01:56:00,37.4,35.6,30.10,South,169,1.0,1.0,93,0.00,CLR,,0.00,0.0,WeatherDisplay:10.37,2013-05-24 09:56:00,
2013-05-24 02:01:00,37.4,35.6,30.10,South,169,1.0,0.0,93,0.00,SCT,,0.00,0.0,WeatherDisplay:10.37,2013-05-24 10:01:00,
2013-05-24 02:06:00,37.4,35.6,30.10,South,169,0.0,0.0,93,0.00,SCT,,0.00,0.0,WeatherDisplay:10.37,2013-05-24 10:06:00,
2013-05-24 02:11:00,37.4,35.8,30.10,SSW,198,1.2,0.0,94,0.00,SCT,,0.00,0.0,WeatherDisplay:10.37,2013-05-24 10:11:00,
2013-05-24 02:16:00,37.5,35.9,30.10,SSW,198,1.2,0.0,94,0.00,SCT,,0.00,0.0,WeatherDisplay:10.37,2013-05-24 10:16:00,
2013-05-24 02:21:00,37.8,36.5,30.10,SSW,198,0.0,0.0,95,0.00,SCT,,0.00,0.0,WeatherDisplay:10.37,2013-05-24 10:21:00,
2013-05-24 02:26:00,38.1,36.8,30.10,SSW,198,1.2,1.2,95,0.00,SCT,,0.00,0.0,WeatherDisplay:10.37,2013-05-24 10:26:00,
2013-05-24 02:31:00,38.3,37.0,30.10,SSW,198,1.2,0.0,95,0.00,SCT,,0.00,0.0,WeatherDisplay:10.37,2013-05-24 10:31:00,
2013-05-24 02:36:00,38.5,37.2,30.10,SSW,198,0.0,0.0,95,0.00,SCT,,0.00,0.0,WeatherDisplay:10.37,2013-05-24 10:36:00,
2013-05-24 02:41:00,38.7,37.4,30.10,SSW,198,3.5,3.5,95,0.00,SCT,,0.00,0.0,WeatherDisplay:10.37,2013-05-24 10:41:00,
2013-05-24 02:46:00,39.1,38.1,30.10,SSW,198,2.3,2.3,96,0.00,SCT,,0.00,0.0,WeatherDisplay:10.37,2013-05-24 10:46:00,
2013-05-24 02:51:00,39.4,38.4,30.10,SSW,198,1.2,1.2,96,0.00,SCT,,0.00,0.0,WeatherDisplay:10.37,2013-05-24 10:51:00,
2013-05-24 02:56:00,39.5,38.5,30.10,SSW,198,0.0,0.0,96,0.00,SCT,,0.00,0.0,WeatherDisplay:10.37,2013-05-24 10:56:00,
2013-05-24 03:01:00,39.8,38.8,30.10,SSW,203,2.3,2.3,96,0.00,OVC,,0.00,0.0,WeatherDisplay:10.37,2013-05-24 11:01:00,
2013-05-24 03:06:00,39.8,38.5,30.09,SSW,203,2.3,2.3,95,0.00,OVC,,0.00,0.0,WeatherDisplay:10.37,2013-05-24 11:06:00,
2013-05-24 03:11:00,39.9,38.6,30.10,SSW,203,1.2,1.2,95,0.00,OVC,,0.00,0.0,WeatherDisplay:10.37,2013-05-24 11:11:00,
2013-05-24 03:16:00,40.0,38.7,30.10,SSW,211,1.2,1.2,95,0.00,OVC,,0.00,0.0,WeatherDisplay:10.37,2013-05-24 11:16:00,
2013-05-24 03:21:00,40.2,38.9,30.09,South,189,3.5,3.5,95,0.00,OVC,,0.00,0.0,WeatherDisplay:10.37,2013-05-24 11:21:00,
2013-05-24 03:26:00,40.3,39.0,30.09,SW,218,2.3,2.3,95,0.00,OVC,,0.00,0.0,WeatherDisplay:10.37,2013-05-24 11:26:00,
2013-05-24 03:31:00,40.5,39.2,30.09,SW,218,1.2,1.2,95,0.00,OVC,,0.00,0.0,WeatherDisplay:10.37,2013-05-24 11:31:00,
2013-05-24 03:36:00,40.7,39.6,30.09,SW,217,0.0,0.0,96,0.00,OVC,,0.00,0.0,WeatherDisplay:10.37,2013-05-24 11:36:00,
2013-05-24 03:41:00,40.8,39.5,30.09,SSW,205,2.3,2.3,95,0.00,OVC,,0.00,0.0,WeatherDisplay:10.37,2013-05-24 11:41:00,
2013-05-24 03:46:00,41.0,39.7,30.09,SSW,196,3.5,3.5,95,0.00,OVC,,0.00,0.0,WeatherDisplay:10.37,2013-05-24 11:46:00,
2013-05-24 03:51:00,41.2,39.9,30.09,SSW,197,3.5,3.5,95,0.00,OVC,,0.00,0.0,WeatherDisplay:10.37,2013-05-24 11:51:00,
2013-05-24 03:56:00,41.3,40.0,30.09,SSW,203,2.3,2.3,95,0.00,OVC,,0.00,0.0,WeatherDisplay:10.37,2013-05-24 11:56:00,
2013-05-24 04:01:00,41.3,40.0,30.09,SSW,209,2.3,2.3,95,0.00,OVC,,0.00,0.0,WeatherDisplay:10.37,2013-05-24 12:01:00,
2013-05-24 04:06:00,41.3,40.0,30.09,SSW,209,0.0,0.0,95,0.00,OVC,,0.00,0.0,WeatherDisplay:10.37,2013-05-24 12:06:00,
2013-05-24 04:11:00,41.4,40.1,30.08,SW,225,3.5,3.5,95,0.00,OVC,,0.00,0.0,WeatherDisplay:10.37,2013-05-24 12:11:00,
2013-05-24 04:16:00,41.5,40.2,30.08,SW,225,0.0,0.0,95,0.00,OVC,,0.00,0.0,WeatherDisplay:10.37,2013-05-24 12:16:00,
2013-05-24 04:21:00,41.5,40.2,30.08,SW,223,1.2,1.2,95,0.00,OVC,,0.00,0.0,WeatherDisplay:10.37,2013-05-24 12:21:00,
2013-05-24 04:26:00,41.5,39.9,30.08,SW,222,1.2,1.2,94,0.00,OVC,,0.00,0.0,WeatherDisplay:10.37,2013-05-24 12:26:00,
2013-05-24 04:31:00,41.5,39.9,30.08,SW,222,2.3,2.3,94,0.00,OVC,,0.00,0.0,WeatherDisplay:10.37,2013-05-24 12:31:00,
2013-05-24 04:36:00,41.5,39.9,30.08,SW,222,0.0,0.0,94,0.00,OVC,,0.00,0.0,WeatherDisplay:10.37,2013-05-24 12:36:00,
2013-05-24 04:41:00,41.5,39.9,30.08,SW,222,0.0,0.0,94,0.00,OVC,,0.00,0.0,WeatherDisplay:10.37,2013-05-24 12:41:00,
2013-05-24 04:46:00,41.5,39.9,30.08,SW,222,2.3,2.3,94,0.00,OVC,,0.00,0.0,WeatherDisplay:10.37,2013-05-24 12:46:00,
2013-05-24 04:51:00,41.5,39.9,30.08,SW,222,1.2,1.2,94,0.00,OVC,,0.00,0.0,WeatherDisplay:10.37,2013-05-24 12:51:00,
2013-05-24 04:56:00,41.5,39.9,30.08,SW,222,1.2,0.0,94,0.00,OVC,,0.00,0.0,WeatherDisplay:10.37,2013-05-24 12:56:00,
2013-05-24 05:01:00,41.5,39.9,30.08,SW,222,2.0,2.0,94,0.00,OVC,,0.00,0.0,WeatherDisplay:10.37,2013-05-24 13:01:00,
2013-05-24 05:06:00,41.5,39.9,30.08,WNW,287,2.3,2.3,94,0.00,OVC,,0.00,0.0,WeatherDisplay:10.37,2013-05-24 13:06:00,
2013-05-24 05:11:00,41.4,39.8,30.08,WNW,287,0.0,0.0,94,0.00,OVC,,0.00,5.0,WeatherDisplay:10.37,2013-05-24 13:11:00,
2013-05-24 05:16:00,41.4,39.8,30.08,WNW,287,1.2,1.2,94,0.00,OVC,,0.00,7.0,WeatherDisplay:10.37,2013-05-24 13:16:00,
2013-05-24 05:21:00,41.4,39.5,30.08,WSW,237,0.0,0.0,93,0.00,OVC,,0.00,11.0,WeatherDisplay:10.37,2013-05-24 13:21:00,
2013-05-24 05:26:00,41.3,39.4,30.08,WSW,237,2.3,2.3,93,0.00,OVC,,0.00,12.0,WeatherDisplay:10.37,2013-05-24 13:26:00,
2013-05-24 05:31:00,41.4,39.5,30.08,West,261,1.2,0.0,93,0.00,OVC,,0.00,14.0,WeatherDisplay:10.37,2013-05-24 13:31:00,
2013-05-24 05:36:00,41.3,39.4,30.08,WSW,241,1.2,1.2,93,0.00,OVC,,0.00,19.0,WeatherDisplay:10.37,2013-05-24 13:36:00,
2013-05-24 05:41:00,41.3,39.4,30.07,SSW,209,1.2,0.0,93,0.00,OVC,,0.00,25.0,WeatherDisplay:10.37,2013-05-24 13:41:00,
2013-05-24 05:46:00,41.4,39.5,30.07,SSW,196,2.3,2.3,93,0.00,OVC,,0.00,28.0,WeatherDisplay:10.37,2013-05-24 13:46:00,
2013-05-24 05:51:00,41.4,39.5,30.07,West,276,2.3,2.3,93,0.00,OVC,,0.00,28.0,WeatherDisplay:10.37,2013-05-24 13:51:00,
2013-05-24 05:56:00,41.4,39.5,30.07,West,276,1.0,1.0,93,0.00,OVC,,0.00,28.0,WeatherDisplay:10.37,2013-05-24 13:56:00,
2013-05-24 06:01:00,41.3,39.4,30.07,West,275,2.3,2.3,93,0.00,BKN,,0.00,30.0,WeatherDisplay:10.37,2013-05-24 14:01:00,
2013-05-24 06:06:00,41.2,39.1,30.07,West,275,0.0,0.0,92,0.00,BKN,,0.00,30.0,WeatherDisplay:10.37,2013-05-24 14:06:00,
2013-05-24 06:11:00,41.1,39.0,30.07,SW,235,0.0,0.0,92,0.00,BKN,,0.00,32.0,WeatherDisplay:10.37,2013-05-24 14:11:00,
2013-05-24 06:16:00,41.1,39.2,30.07,SW,235,0.0,0.0,93,0.00,BKN,,0.00,46.0,WeatherDisplay:10.37,2013-05-24 14:16:00,
2013-05-24 06:21:00,41.1,39.2,30.07,SW,235,0.0,0.0,93,0.00,BKN,,0.00,70.0,WeatherDisplay:10.37,2013-05-24 14:21:00,
2013-05-24 06:26:00,41.1,39.2,30.07,SW,235,1.2,1.2,93,0.00,BKN,,0.00,63.0,WeatherDisplay:10.37,2013-05-24 14:26:00,
2013-05-24 06:31:00,41.1,39.2,30.07,SSW,201,0.0,0.0,93,0.00,BKN,,0.00,40.0,WeatherDisplay:10.37,2013-05-24 14:31:00,
2013-05-24 06:36:00,41.1,39.2,30.07,SSW,201,1.2,1.2,93,0.00,BKN,,0.00,91.0,WeatherDisplay:10.37,2013-05-24 14:36:00,
2013-05-24 06:41:00,41.2,39.3,30.07,SSW,203,1.2,1.2,93,0.00,BKN,,0.00,111.0,WeatherDisplay:10.37,2013-05-24 14:41:00,
2013-05-24 06:46:00,41.3,39.4,30.07,SSW,202,1.0,1.0,93,0.00,BKN,,0.00,123.0,WeatherDisplay:10.37,2013-05-24 14:46:00,
2013-05-24 06:51:00,41.5,39.6,30.07,SSW,202,1.2,0.0,93,0.00,BKN,,0.00,132.0,WeatherDisplay:10.37,2013-05-24 14:51:00,
2013-05-24 06:56:00,41.9,40.0,30.07,SSW,204,1.2,0.0,93,0.00,BKN,,0.00,141.0,WeatherDisplay:10.37,2013-05-24 14:56:00,
2013-05-24 07:01:00,42.2,40.3,30.07,SSW,204,0.0,0.0,93,0.00,CLR,,0.00,153.0,WeatherDisplay:10.37,2013-05-24 15:01:00,
2013-05-24 07:06:00,42.6,40.7,30.07,SSW,204,2.3,2.3,93,0.00,CLR,,0.00,163.0,WeatherDisplay:10.37,2013-05-24 15:06:00,
2013-05-24 07:11:00,43.2,41.0,30.07,SSW,204,2.3,2.3,92,0.00,CLR,,0.00,176.0,WeatherDisplay:10.37,2013-05-24 15:11:00,
2013-05-24 07:16:00,43.6,40.9,30.07,SSW,207,1.2,1.2,90,0.00,CLR,,0.00,188.0,WeatherDisplay:10.37,2013-05-24 15:16:00,
2013-05-24 07:21:00,44.2,41.2,30.07,SSW,199,1.2,0.0,89,0.00,CLR,,0.00,200.0,WeatherDisplay:10.37,2013-05-24 15:21:00,
2013-05-24 07:26:00,44.7,41.4,30.07,SSW,195,2.3,2.3,88,0.00,CLR,,0.00,214.0,WeatherDisplay:10.37,2013-05-24 15:26:00,
2013-05-24 07:31:00,45.1,41.5,30.07,SSW,195,3.5,3.5,87,0.00,CLR,,0.00,225.0,WeatherDisplay:10.37,2013-05-24 15:31:00,
2013-05-24 07:36:00,45.4,41.5,30.07,SSW,198,3.5,3.5,86,0.00,CLR,,0.00,237.0,WeatherDisplay:10.37,2013-05-24 15:36:00,
2013-05-24 07:41:00,45.6,41.7,30.07,SW,226,2.0,2.0,86,0.00,CLR,,0.00,248.0,WeatherDisplay:10.37,2013-05-24 15:41:00,
2013-05-24 07:46:00,46.0,41.7,30.07,SSW,203,2.3,2.3,85,0.00,CLR,,0.00,260.0,WeatherDisplay:10.37,2013-05-24 15:46:00,
2013-05-24 07:51:00,46.3,41.7,30.06,South,178,2.3,2.3,84,0.00,CLR,,0.00,272.0,WeatherDisplay:10.37,2013-05-24 15:51:00,
2013-05-24 07:56:00,46.4,41.2,30.06,South,180,3.5,3.5,82,0.00,CLR,,0.00,283.0,WeatherDisplay:10.37,2013-05-24 15:56:00,
2013-05-24 08:01:00,46.6,41.7,30.06,SSW,208,3.5,3.5,83,0.00,CLR,,0.00,288.0,WeatherDisplay:10.37,2013-05-24 16:01:00,
2013-05-24 08:06:00,46.8,41.6,30.06,WSW,246,3.5,3.5,82,0.00,CLR,,0.00,304.0,WeatherDisplay:10.37,2013-05-24 16:06:00,
2013-05-24 08:11:00,47.1,41.9,30.06,SSW,205,3.5,3.5,82,0.00,CLR,,0.00,316.0,WeatherDisplay:10.37,2013-05-24 16:11:00,
2013-05-24 08:16:00,47.4,41.9,30.06,SSW,211,2.3,2.3,81,0.00,CLR,,0.00,294.0,WeatherDisplay:10.37,2013-05-24 16:16:00,
2013-05-24 08:21:00,47.6,42.4,30.06,SW,218,1.2,1.2,82,0.00,CLR,,0.00,348.0,WeatherDisplay:10.37,2013-05-24 16:21:00,
2013-05-24 08:26:00,47.9,42.0,30.06,South,181,4.6,4.6,80,0.00,CLR,,0.00,355.0,WeatherDisplay:10.37,2013-05-24 16:26:00,
2013-05-24 08:31:00,48.0,42.1,30.06,WNW,285,2.3,2.3,80,0.00,CLR,,0.00,366.0,WeatherDisplay:10.37,2013-05-24 16:31:00,
2013-05-24 08:36:00,48.0,42.4,30.06,WNW,285,2.0,2.0,81,0.00,CLR,,0.00,378.0,WeatherDisplay:10.37,2013-05-24 16:36:00,
2013-05-24 08:41:00,48.1,41.9,30.06,SSW,212,4.6,4.6,79,0.00,CLR,,0.00,388.0,WeatherDisplay:10.37,2013-05-24 16:41:00,
2013-05-24 08:46:00,48.2,42.0,30.06,SSW,202,3.5,3.5,79,0.00,CLR,,0.00,401.0,WeatherDisplay:10.37,2013-05-24 16:46:00,
2013-05-24 08:51:00,48.3,41.8,30.06,SSW,207,2.3,2.3,78,0.00,CLR,,0.00,413.0,WeatherDisplay:10.37,2013-05-24 16:51:00,
2013-05-24 08:56:00,48.4,42.2,30.06,SW,225,3.5,3.5,79,0.00,CLR,,0.00,424.0,WeatherDisplay:10.37,2013-05-24 16:56:00,
2013-05-24 09:01:00,48.4,41.9,30.06,WSW,258,3.5,3.5,78,0.00,CLR,,0.00,436.0,WeatherDisplay:10.37,2013-05-24 17:01:00,
2013-05-24 09:06:00,48.5,42.0,30.06,SSW,207,3.5,3.5,78,0.00,CLR,,0.00,448.0,WeatherDisplay:10.37,2013-05-24 17:06:00,
2013-05-24 09:11:00,48.5,42.0,30.06,South,180,3.5,3.5,78,0.00,CLR,,0.00,461.0,WeatherDisplay:10.37,2013-05-24 17:11:00,
2013-05-24 09:16:00,48.6,41.7,30.06,SW,227,3.5,3.5,77,0.00,CLR,,0.00,473.0,WeatherDisplay:10.37,2013-05-24 17:16:00,
2013-05-24 09:21:00,48.7,42.1,30.06,SSE,153,3.5,3.5,78,0.00,CLR,,0.00,483.0,WeatherDisplay:10.37,2013-05-24 17:21:00,
2013-05-24 09:26:00,48.6,42.0,30.06,SSW,202,3.5,3.5,78,0.00,CLR,,0.00,489.0,WeatherDisplay:10.37,2013-05-24 17:26:00,
2013-05-24 09:31:00,48.6,42.0,30.06,South,175,3.5,3.5,78,0.00,CLR,,0.00,506.0,WeatherDisplay:10.37,2013-05-24 17:31:00,
2013-05-24 09:36:00,48.7,42.1,30.06,South,173,3.5,3.5,78,0.00,CLR,,0.00,517.0,WeatherDisplay:10.37,2013-05-24 17:36:00,
2013-05-24 09:41:00,48.8,41.9,30.05,South,173,5.8,5.8,77,0.00,CLR,,0.00,531.0,WeatherDisplay:10.37,2013-05-24 17:41:00,
2013-05-24 09:46:00,48.8,41.9,30.06,NW,311,3.5,3.5,77,0.00,CLR,,0.00,543.0,WeatherDisplay:10.37,2013-05-24 17:46:00,
2013-05-24 09:51:00,48.8,41.9,30.06,SSW,200,3.5,3.5,77,0.00,CLR,,0.00,554.0,WeatherDisplay:10.37,2013-05-24 17:51:00,
2013-05-24 09:56:00,48.8,41.9,30.06,SW,234,4.6,4.6,77,0.00,CLR,,0.00,563.0,WeatherDisplay:10.37,2013-05-24 17:56:00,
2013-05-24 10:01:00,48.6,42.0,30.05,West,274,3.5,3.5,78,0.00,CLR,,0.00,575.0,WeatherDisplay:10.37,2013-05-24 18:01:00,
2013-05-24 10:06:00,48.5,42.0,30.05,West,279,3.5,3.5,78,0.00,CLR,,0.00,584.0,WeatherDisplay:10.37,2013-05-24 18:06:00,
2013-05-24 10:11:00,48.5,41.6,30.05,WNW,302,5.8,5.8,77,0.00,CLR,,0.00,594.0,WeatherDisplay:10.37,2013-05-24 18:11:00,
2013-05-24 10:16:00,48.5,41.6,30.05,WSW,240,3.5,3.5,77,0.00,CLR,,0.00,605.0,WeatherDisplay:10.37,2013-05-24 18:16:00,
2013-05-24 10:21:00,48.6,42.0,30.05,SW,226,4.0,4.0,78,0.00,CLR,,0.00,613.0,WeatherDisplay:10.37,2013-05-24 18:21:00,
2013-05-24 10:26:00,48.9,42.7,30.05,North,355,2.0,2.0,79,0.00,CLR,,0.00,626.0,WeatherDisplay:10.37,2013-05-24 18:26:00,
2013-05-24 10:31:00,49.1,42.2,30.05,WNW,284,4.6,4.6,77,0.00,CLR,,0.00,633.0,WeatherDisplay:10.37,2013-05-24 18:31:00,
2013-05-24 10:36:00,49.0,42.1,30.05,WSW,250,4.6,4.6,77,0.00,CLR,,0.00,643.0,WeatherDisplay:10.37,2013-05-24 18:36:00,
2013-05-24 10:41:00,49.1,42.5,30.05,WNW,302,2.0,2.0,78,0.00,CLR,,0.00,650.0,WeatherDisplay:10.37,2013-05-24 18:41:00,
2013-05-24 10:46:00,49.5,41.9,30.05,West,265,3.5,3.5,75,0.00,CLR,,0.00,663.0,WeatherDisplay:10.37,2013-05-24 18:46:00,
2013-05-24 10:51:00,49.9,42.6,30.05,NNW,327,3.5,3.5,76,0.00,CLR,,0.00,670.0,WeatherDisplay:10.37,2013-05-24 18:51:00,
2013-05-24 10:56:00,50.2,42.2,30.05,WNW,285,3.0,3.0,74,0.00,CLR,,0.00,680.0,WeatherDisplay:10.37,2013-05-24 18:56:00,
2013-05-24 11:01:00,50.7,42.4,30.04,NNW,327,3.5,3.5,73,0.00,CLR,,0.00,689.0,WeatherDisplay:10.37,2013-05-24 19:01:00,
2013-05-24 11:06:00,51.2,42.5,30.04,NW,313,3.5,3.5,72,0.00,CLR,,0.00,696.0,WeatherDisplay:10.37,2013-05-24 19:06:00,
2013-05-24 11:11:00,51.3,41.8,30.04,WNW,302,3.5,3.5,70,0.00,CLR,,0.00,708.0,WeatherDisplay:10.37,2013-05-24 19:11:00,
2013-05-24 11:16:00,51.6,42.5,30.04,WNW,298,4.0,4.0,71,0.00,CLR,,0.00,714.0,WeatherDisplay:10.37,2013-05-24 19:16:00,
2013-05-24 11:21:00,51.9,42.8,30.04,WNW,300,3.5,3.5,71,0.00,CLR,,0.00,724.0,WeatherDisplay:10.37,2013-05-24 19:21:00,
2013-05-24 11:26:00,52.3,42.0,30.04,NW,319,3.5,3.5,68,0.00,CLR,,0.00,731.0,WeatherDisplay:10.37,2013-05-24 19:26:00,
2013-05-24 11:31:00,52.7,42.4,30.04,SW,216,3.5,3.5,68,0.00,CLR,,0.00,742.0,WeatherDisplay:10.37,2013-05-24 19:31:00,
2013-05-24 11:36:00,53.1,43.2,30.04,NW,313,3.5,3.5,69,0.00,CLR,,0.00,744.0,WeatherDisplay:10.37,2013-05-24 19:36:00,
2013-05-24 11:41:00,53.0,42.7,30.04,WNW,300,2.3,2.3,68,0.00,CLR,,0.00,752.0,WeatherDisplay:10.37,2013-05-24 19:41:00,
2013-05-24 11:46:00,52.8,42.5,30.04,WNW,285,3.5,3.5,68,0.00,CLR,,0.00,759.0,WeatherDisplay:10.37,2013-05-24 19:46:00,
2013-05-24 11:51:00,52.9,43.0,30.04,NW,315,3.5,3.5,69,0.00,CLR,,0.00,766.0,WeatherDisplay:10.37,2013-05-24 19:51:00,
2013-05-24 11:56:00,53.0,43.1,30.04,WSW,254,3.5,3.5,69,0.00,CLR,,0.00,772.0,WeatherDisplay:10.37,2013-05-24 19:56:00,
2013-05-24 12:01:00,53.2,43.3,30.04,WNW,288,2.3,2.3,69,0.00,CLR,,0.00,780.0,WeatherDisplay:10.37,2013-05-24 20:01:00,
2013-05-24 12:07:00,53.0,43.1,30.04,NW,304,4.6,4.6,69,0.00,CLR,,0.00,788.0,WeatherDisplay:10.37,2013-05-24 20:07:00,
2013-05-24 12:12:00,52.6,43.5,30.04,WSW,240,2.3,2.3,71,0.00,CLR,,0.00,795.0,WeatherDisplay:10.37,2013-05-24 20:12:00,
2013-05-24 12:17:00,52.1,43.0,30.04,WNW,288,4.0,4.0,71,0.00,CLR,,0.00,800.0,WeatherDisplay:10.37,2013-05-24 20:17:00,
2013-05-24 12:22:00,51.7,42.6,30.04,WNW,289,4.6,4.6,71,0.00,CLR,,0.00,803.0,WeatherDisplay:10.37,2013-05-24 20:22:00,
2013-05-24 12:27:00,51.6,42.9,30.03,SW,233,3.0,3.7,72,0.00,CLR,,0.00,809.0,WeatherDisplay:10.37,2013-05-24 20:27:00,
2013-05-24 12:32:00,51.4,41.9,30.03,West,272,5.8,5.8,70,0.00,CLR,,0.00,814.0,WeatherDisplay:10.37,2013-05-24 20:32:00,
2013-05-24 12:37:00,51.1,42.4,30.03,WNW,282,3.5,3.5,72,0.00,CLR,,0.00,817.0,WeatherDisplay:10.37,2013-05-24 20:37:00,
2013-05-24 12:42:00,51.1,42.4,30.03,WNW,293,4.6,4.6,72,0.00,CLR,,0.00,821.0,WeatherDisplay:10.37,2013-05-24 20:42:00,
2013-05-24 12:47:00,51.1,42.4,30.03,NW,310,4.6,4.6,72,0.00,CLR,,0.00,826.0,WeatherDisplay:10.37,2013-05-24 20:47:00,
2013-05-24 12:52:00,51.3,42.6,30.03,NW,310,3.5,3.5,72,0.00,CLR,,0.00,831.0,WeatherDisplay:10.37,2013-05-24 20:52:00,
2013-05-24 12:57:00,51.6,43.2,30.03,West,277,1.2,1.6,73,0.00,CLR,,0.00,833.0,WeatherDisplay:10.37,2013-05-24 20:57:00,
2013-05-24 13:02:00,52.0,42.9,30.03,West,281,5.0,5.0,71,0.00,CLR,,0.00,840.0,WeatherDisplay:10.37,2013-05-24 21:02:00,
2013-05-24 13:07:00,52.1,43.7,30.02,WSW,247,3.5,3.5,73,0.00,CLR,,0.00,842.0,WeatherDisplay:10.37,2013-05-24 21:07:00,
2013-05-24 13:12:00,52.2,42.7,30.02,West,276,4.6,4.6,70,0.00,CLR,,0.00,840.0,WeatherDisplay:10.37,2013-05-24 21:12:00,
2013-05-24 13:17:00,52.1,43.7,30.02,WNW,290,3.5,3.5,73,0.00,CLR,,0.00,842.0,WeatherDisplay:10.37,2013-05-24 21:17:00,
2013-05-24 13:22:00,51.9,42.8,30.02,WSW,258,4.6,4.6,71,0.00,CLR,,0.00,847.0,WeatherDisplay:10.37,2013-05-24 21:22:00,
2013-05-24 13:27:00,52.0,43.3,30.01,NNE,12,3.5,3.5,72,0.00,CLR,,0.00,851.0,WeatherDisplay:10.37,2013-05-24 21:27:00,
2013-05-24 13:32:00,52.2,43.1,30.02,West,267,5.8,5.8,71,0.00,CLR,,0.00,853.0,WeatherDisplay:10.37,2013-05-24 21:32:00,
2013-05-24 13:37:00,52.1,43.0,30.02,WNW,300,4.6,4.6,71,0.00,CLR,,0.00,851.0,WeatherDisplay:10.37,2013-05-24 21:37:00,
2013-05-24 13:42:00,51.9,42.8,30.02,WNW,298,4.6,4.6,71,0.00,CLR,,0.00,853.0,WeatherDisplay:10.37,2013-05-24 21:42:00,
2013-05-24 13:47:00,51.6,42.5,30.02,WNW,302,4.6,4.6,71,0.00,CLR,,0.00,856.0,WeatherDisplay:10.37,2013-05-24 21:47:00,
2013-05-24 13:52:00,51.5,42.8,30.02,West,267,5.8,5.8,72,0.00,CLR,,0.00,854.0,WeatherDisplay:10.37,2013-05-24 21:52:00,
2013-05-24 13:57:00,51.3,42.9,30.01,WNW,284,3.5,3.5,73,0.00,CLR,,0.00,858.0,WeatherDisplay:10.37,2013-05-24 21:57:00,
2013-05-24 14:02:00,51.0,42.6,30.02,WNW,286,4.6,4.6,73,0.00,CLR,,0.00,854.0,WeatherDisplay:10.37,2013-05-24 22:02:00,
2013-05-24 14:07:00,51.0,43.0,30.01,NNW,338,3.5,3.5,74,0.00,CLR,,0.00,854.0,WeatherDisplay:10.37,2013-05-24 22:07:00,
2013-05-24 14:12:00,51.0,43.4,30.01,SW,229,3.5,3.5,75,0.00,CLR,,0.00,849.0,WeatherDisplay:10.37,2013-05-24 22:12:00,
2013-05-24 14:17:00,51.2,43.2,30.01,SW,220,4.6,4.6,74,0.00,CLR,,0.00,856.0,WeatherDisplay:10.37,2013-05-24 22:17:00,
2013-05-24 14:22:00,51.6,43.9,30.01,West,275,3.5,3.5,75,0.00,CLR,,0.00,854.0,WeatherDisplay:10.37,2013-05-24 22:22:00,
2013-05-24 14:27:00,51.7,43.3,30.01,SSW,211,4.6,4.6,73,0.00,CLR,,0.00,853.0,WeatherDisplay:10.37,2013-05-24 22:27:00,
2013-05-24 14:32:00,52.1,43.3,30.01,WSW,244,4.6,4.6,72,0.00,CLR,,0.00,849.0,WeatherDisplay:10.37,2013-05-24 22:32:00,
2013-05-24 14:37:00,52.1,43.3,30.01,NW,310,5.8,5.8,72,0.00,CLR,,0.00,849.0,WeatherDisplay:10.37,2013-05-24 22:37:00,
2013-05-24 14:42:00,52.1,43.3,30.01,SW,221,3.5,3.5,72,0.00,CLR,,0.00,849.0,WeatherDisplay:10.37,2013-05-24 22:42:00,
2013-05-24 14:47:00,52.1,43.3,30.01,WSW,237,5.8,5.8,72,0.00,CLR,,0.00,847.0,WeatherDisplay:10.37,2013-05-24 22:47:00,
2013-05-24 14:52:00,52.3,43.9,30.01,NW,306,7.0,7.0,73,0.00,CLR,,0.00,826.0,WeatherDisplay:10.37,2013-05-24 22:52:00,
2013-05-24 14:57:00,52.5,43.4,30.01,WNW,300,3.5,3.5,71,0.00,CLR,,0.00,823.0,WeatherDisplay:10.37,2013-05-24 22:57:00,
2013-05-24 15:02:00,52.7,43.6,30.01,NW,306,3.5,3.5,71,0.00,CLR,,0.00,838.0,WeatherDisplay:10.37,2013-05-24 23:02:00,
2013-05-24 15:07:00,52.8,42.9,30.01,SSW,205,4.6,4.6,69,0.00,CLR,,0.00,821.0,WeatherDisplay:10.37,2013-05-24 23:07:00,
2013-05-24 15:12:00,52.8,43.3,30.01,West,276,4.6,4.6,70,0.00,CLR,,0.00,831.0,WeatherDisplay:10.37,2013-05-24 23:12:00,
2013-05-24 15:17:00,52.9,43.4,30.01,WNW,283,4.6,4.6,70,0.00,CLR,,0.00,824.0,WeatherDisplay:10.37,2013-05-24 23:17:00,
2013-05-24 15:22:00,52.9,43.0,30.00,WNW,283,5.0,5.0,69,0.00,CLR,,0.00,819.0,WeatherDisplay:10.37,2013-05-24 23:22:00,
2013-05-24 15:27:00,53.0,43.1,30.01,NW,312,3.5,3.5,69,0.00,CLR,,0.00,814.0,WeatherDisplay:10.37,2013-05-24 23:27:00,
2013-05-24 15:32:00,53.3,43.4,30.01,NW,319,2.3,2.3,69,0.00,CLR,,0.00,809.0,WeatherDisplay:10.37,2013-05-24 23:32:00,
2013-05-24 15:37:00,53.5,42.8,30.01,NW,316,3.5,3.5,67,0.00,CLR,,0.00,805.0,WeatherDisplay:10.37,2013-05-24 23:37:00,
2013-05-24 15:42:00,53.4,42.3,30.01,NW,313,4.6,4.6,66,0.00,CLR,,0.00,796.0,WeatherDisplay:10.37,2013-05-24 23:42:00,
2013-05-24 15:47:00,53.0,42.3,30.01,West,273,4.0,4.0,67,0.00,CLR,,0.00,789.0,WeatherDisplay:10.37,2013-05-24 23:47:00,
2013-05-24 15:52:00,53.0,42.3,30.01,WNW,282,4.6,4.6,67,0.00,CLR,,0.00,786.0,WeatherDisplay:10.37,2013-05-24 23:52:00,
2013-05-24 15:57:00,53.3,42.2,30.00,SW,215,5.0,5.0,66,0.00,CLR,,0.00,779.0,WeatherDisplay:10.37,2013-05-24 23:57:00,
2013-05-24 16:02:00,53.8,41.9,30.01,West,279,5.8,5.8,64,0.00,CLR,,0.00,779.0,WeatherDisplay:10.37,2013-05-25 00:02:00,
2013-05-24 16:07:00,54.1,42.6,30.00,NNW,337,6.0,6.0,65,0.00,CLR,,0.00,766.0,WeatherDisplay:10.37,2013-05-25 00:07:00,
2013-05-24 16:12:00,54.6,41.8,30.00,West,278,2.3,2.3,62,0.00,CLR,,0.00,761.0,WeatherDisplay:10.37,2013-05-25 00:12:00,
2013-05-24 16:17:00,54.9,42.1,30.00,WNW,303,4.0,4.0,62,0.00,CLR,,0.00,754.0,WeatherDisplay:10.37,2013-05-25 00:17:00,
2013-05-24 16:22:00,55.2,42.8,30.00,NNW,340,3.5,3.5,63,0.00,CLR,,0.00,747.0,WeatherDisplay:10.37,2013-05-25 00:22:00,
2013-05-24 16:27:00,56.0,42.7,30.00,NW,309,5.8,5.8,61,0.00,CLR,,0.00,740.0,WeatherDisplay:10.37,2013-05-25 00:27:00,
2013-05-24 16:32:00,56.4,42.2,30.00,West,261,3.5,3.5,59,0.00,CLR,,0.00,731.0,WeatherDisplay:10.37,2013-05-25 00:32:00,
2013-05-24 16:37:00,56.8,42.6,30.00,WNW,295,4.0,4.0,59,0.00,CLR,,0.00,722.0,WeatherDisplay:10.37,2013-05-25 00:37:00,
2013-05-24 16:42:00,57.3,42.6,30.00,West,281,6.9,6.9,58,0.00,CLR,,0.00,714.0,WeatherDisplay:10.37,2013-05-25 00:42:00,
2013-05-24 16:47:00,57.4,42.3,30.00,North,355,4.6,4.6,57,0.00,CLR,,0.00,705.0,WeatherDisplay:10.37,2013-05-25 00:47:00,
2013-05-24 16:52:00,57.7,43.0,30.00,NNE,19,6.9,6.9,58,0.00,CLR,,0.00,696.0,WeatherDisplay:10.37,2013-05-25 00:52:00,
2013-05-24 16:57:00,57.8,42.2,30.00,NNW,328,8.1,8.1,56,0.00,CLR,,0.00,687.0,WeatherDisplay:10.37,2013-05-25 00:57:00,
2013-05-24 17:02:00,57.8,42.2,30.00,NNW,335,4.6,4.6,56,0.00,CLR,,0.00,679.0,WeatherDisplay:10.37,2013-05-25 01:02:00,
2013-05-24 17:07:00,57.9,42.8,30.00,NW,311,5.8,5.8,57,0.00,CLR,,0.00,673.0,WeatherDisplay:10.37,2013-05-25 01:07:00,
2013-05-24 17:12:00,58.2,42.1,30.00,WNW,282,8.1,8.1,55,0.00,CLR,,0.00,408.0,WeatherDisplay:10.37,2013-05-25 01:12:00,
2013-05-24 17:17:00,58.2,42.1,30.00,NNW,347,6.9,6.9,55,0.00,CLR,,0.00,272.0,WeatherDisplay:10.37,2013-05-25 01:17:00,
2013-05-24 17:22:00,58.3,42.7,29.99,NNE,22,3.5,3.5,56,0.00,CLR,,0.00,642.0,WeatherDisplay:10.37,2013-05-25 01:22:00,
2013-05-24 17:27:00,58.6,42.5,30.00,WNW,299,4.6,4.6,55,0.00,CLR,,0.00,631.0,WeatherDisplay:10.37,2013-05-25 01:27:00,
2013-05-24 17:32:00,58.6,42.0,29.99,NW,304,9.2,9.2,54,0.00,CLR,,0.00,621.0,WeatherDisplay:10.37,2013-05-25 01:32:00,
2013-05-24 17:37:00,58.5,41.9,30.00,NNW,333,10.4,10.4,54,0.00,CLR,,0.00,612.0,WeatherDisplay:10.37,2013-05-25 01:37:00,
2013-05-24 17:42:00,58.8,42.2,30.00,NW,308,8.1,8.1,54,0.00,CLR,,0.00,601.0,WeatherDisplay:10.37,2013-05-25 01:42:00,
2013-05-24 17:47:00,59.1,42.0,29.99,NNW,333,4.6,4.6,53,0.00,CLR,,0.00,592.0,WeatherDisplay:10.37,2013-05-25 01:47:00,
2013-05-24 17:52:00,59.4,42.3,29.99,NNW,328,8.1,8.1,53,0.00,CLR,,0.00,584.0,WeatherDisplay:10.37,2013-05-25 01:52:00,
2013-05-24 17:57:00,59.7,41.5,29.99,NNW,341,7.0,7.0,51,0.00,CLR,,0.00,570.0,WeatherDisplay:10.37,2013-05-25 01:57:00,
2013-05-24 18:02:00,59.9,42.2,29.99,NW,326,3.5,3.5,52,0.00,CLR,,0.00,559.0,WeatherDisplay:10.37,2013-05-25 02:02:00,
2013-05-24 18:07:00,60.4,41.7,29.99,NNW,338,5.8,5.8,50,0.00,CLR,,0.00,550.0,WeatherDisplay:10.37,2013-05-25 02:07:00,
2013-05-24 18:12:00,60.5,41.8,29.99,North,360,6.9,6.9,50,0.00,CLR,,0.00,536.0,WeatherDisplay:10.37,2013-05-25 02:12:00,
2013-05-24 18:17:00,60.6,42.4,29.99,NW,323,7.0,7.0,51,0.00,CLR,,0.00,522.0,WeatherDisplay:10.37,2013-05-25 02:17:00,
2013-05-24 18:22:00,60.5,41.2,29.99,North,350,11.5,11.5,49,0.00,CLR,,0.00,450.0,WeatherDisplay:10.37,2013-05-25 02:22:00,
2013-05-24 18:27:00,60.4,41.1,29.99,NNW,340,5.8,5.8,49,0.00,CLR,,0.00,448.0,WeatherDisplay:10.37,2013-05-25 02:27:00,
2013-05-24 18:32:00,60.1,41.4,29.99,WNW,291,6.9,6.9,50,0.00,CLR,,0.00,403.0,WeatherDisplay:10.37,2013-05-25 02:32:00,
2013-05-24 18:37:00,60.1,40.9,29.99,WNW,298,6.9,6.9,49,0.00,CLR,,0.00,432.0,WeatherDisplay:10.37,2013-05-25 02:37:00,
2013-05-24 18:42:00,60.1,41.4,29.99,North,9,5.0,5.0,50,0.00,CLR,,0.00,469.0,WeatherDisplay:10.37,2013-05-25 02:42:00,
2013-05-24 18:47:00,60.0,41.3,29.99,North,355,7.0,7.0,50,0.00,CLR,,0.00,459.0,WeatherDisplay:10.37,2013-05-25 02:47:00,
2013-05-24 18:52:00,59.8,41.1,29.99,WNW,293,3.5,3.5,50,0.00,CLR,,0.00,446.0,WeatherDisplay:10.37,2013-05-25 02:52:00,
2013-05-24 18:57:00,59.6,40.9,29.98,NNW,334,11.0,11.0,50,0.00,CLR,,0.00,434.0,WeatherDisplay:10.37,2013-05-25 02:57:00,
2013-05-24 19:02:00,59.0,40.9,29.98,NNW,339,6.9,6.9,51,0.00,CLR,,0.00,424.0,WeatherDisplay:10.37,2013-05-25 03:02:00,
2013-05-24 19:07:00,58.7,41.1,29.98,NNW,340,11.5,11.5,52,0.00,CLR,,0.00,248.0,WeatherDisplay:10.37,2013-05-25 03:07:00,
2013-05-24 19:12:00,58.6,41.0,29.98,North,349,9.2,9.2,52,0.00,CLR,,0.00,153.0,WeatherDisplay:10.37,2013-05-25 03:12:00,
2013-05-24 19:17:00,58.9,40.8,29.98,NW,305,8.1,8.1,51,0.00,CLR,,0.00,158.0,WeatherDisplay:10.37,2013-05-25 03:17:00,
2013-05-24 19:22:00,58.8,41.2,29.98,North,5,4.6,4.6,52,0.00,CLR,,0.00,142.0,WeatherDisplay:10.37,2013-05-25 03:22:00,
2013-05-24 19:27:00,58.7,41.1,29.98,WNW,302,8.1,8.1,52,0.00,CLR,,0.00,181.0,WeatherDisplay:10.37,2013-05-25 03:27:00,
2013-05-24 19:32:00,58.4,40.8,29.98,ENE,60,9.2,9.2,52,0.00,CLR,,0.00,139.0,WeatherDisplay:10.37,2013-05-25 03:32:00,
2013-05-24 19:37:00,58.1,41.0,29.98,NNW,336,8.1,8.1,53,0.00,CLR,,0.00,141.0,WeatherDisplay:10.37,2013-05-25 03:37:00,
2013-05-24 19:42:00,58.0,41.0,29.98,North,350,8.1,8.1,53,0.00,CLR,,0.00,134.0,WeatherDisplay:10.37,2013-05-25 03:42:00,
2013-05-24 19:47:00,57.8,40.8,29.98,North,355,3.5,3.5,53,0.00,CLR,,0.00,174.0,WeatherDisplay:10.37,2013-05-25 03:47:00,
2013-05-24 19:52:00,57.7,40.7,29.98,North,355,4.6,4.6,53,0.00,CLR,,0.00,142.0,WeatherDisplay:10.37,2013-05-25 03:52:00,
2013-05-24 19:57:00,57.8,40.8,29.98,NW,325,4.6,4.6,53,0.00,CLR,,0.00,160.0,WeatherDisplay:10.37,2013-05-25 03:57:00,
2013-05-24 20:01:00,57.8,40.8,29.98,North,355,5.8,5.8,53,0.00,CLR,,0.00,142.0,WeatherDisplay:10.37,2013-05-25 04:01:00,
2013-05-24 20:06:00,57.9,40.9,29.98,NNW,340,5.8,5.8,53,0.00,CLR,,0.00,186.0,WeatherDisplay:10.37,2013-05-25 04:06:00,
2013-05-24 20:11:00,57.8,40.8,29.98,NW,319,4.6,4.6,53,0.00,CLR,,0.00,257.0,WeatherDisplay:10.37,2013-05-25 04:11:00,
2013-05-24 20:16:00,57.8,40.8,29.98,North,355,5.8,5.8,53,0.00,CLR,,0.00,248.0,WeatherDisplay:10.37,2013-05-25 04:16:00,
2013-05-24 20:21:00,57.8,40.8,29.98,NNW,340,3.5,3.5,53,0.00,CLR,,0.00,127.0,WeatherDisplay:10.37,2013-05-25 04:21:00,
2013-05-24 20:26:00,57.4,40.4,29.98,NNW,346,8.1,8.1,53,0.00,CLR,,0.00,125.0,WeatherDisplay:10.37,2013-05-25 04:26:00,
2013-05-24 20:31:00,56.9,40.9,29.98,North,350,5.8,5.8,55,0.00,CLR,,0.00,70.0,WeatherDisplay:10.37,2013-05-25 04:31:00,
2013-05-24 20:36:00,56.7,40.7,29.98,NNW,340,3.5,3.5,55,0.00,CLR,,0.00,70.0,WeatherDisplay:10.37,2013-05-25 04:36:00,
2013-05-24 20:41:00,56.6,40.6,29.98,WNW,293,3.5,3.5,55,0.00,CLR,,0.00,67.0,WeatherDisplay:10.37,2013-05-25 04:41:00,
2013-05-24 20:46:00,56.3,40.8,29.98,WNW,298,3.5,3.5,56,0.00,CLR,,0.00,74.0,WeatherDisplay:10.37,2013-05-25 04:46:00,
2013-05-24 20:51:00,55.9,40.9,29.98,West,269,3.5,3.5,57,0.00,CLR,,0.00,69.0,WeatherDisplay:10.37,2013-05-25 04:51:00,
2013-05-24 20:56:00,55.4,40.9,29.98,WSW,252,2.3,2.3,58,0.00,CLR,,0.00,53.0,WeatherDisplay:10.37,2013-05-25 04:56:00,
2013-05-24 21:01:00,54.9,40.8,29.98,WSW,252,1.2,0.0,59,0.00,CLR,,0.00,47.0,WeatherDisplay:10.37,2013-05-25 05:01:00,
2013-05-24 21:06:00,54.4,41.6,29.98,SW,224,3.5,3.5,62,0.00,CLR,,0.00,53.0,WeatherDisplay:10.37,2013-05-25 05:06:00,
2013-05-24 21:11:00,53.6,42.1,29.98,SW,224,2.3,2.3,65,0.00,CLR,,0.00,42.0,WeatherDisplay:10.37,2013-05-25 05:11:00,
2013-05-24 21:16:00,52.8,42.1,29.98,South,181,4.6,4.6,67,0.00,CLR,,0.00,42.0,WeatherDisplay:10.37,2013-05-25 05:16:00,
2013-05-24 21:21:00,51.6,41.8,29.98,South,191,3.5,3.5,69,0.00,CLR,,0.00,42.0,WeatherDisplay:10.37,2013-05-25 05:21:00,
2013-05-24 21:26:00,50.3,42.0,29.98,SSW,212,3.5,3.5,73,0.00,CLR,,0.00,44.0,WeatherDisplay:10.37,2013-05-25 05:26:00,
2013-05-24 21:31:00,49.2,42.0,29.98,SSW,204,3.5,3.5,76,0.00,CLR,,0.00,46.0,WeatherDisplay:10.37,2013-05-25 05:31:00,
2013-05-24 21:36:00,48.4,41.9,29.98,South,176,5.8,5.8,78,0.00,CLR,,0.00,40.0,WeatherDisplay:10.37,2013-05-25 05:36:00,
2013-05-24 21:41:00,47.8,41.6,29.98,SSW,198,1.2,1.2,79,0.00,CLR,,0.00,39.0,WeatherDisplay:10.37,2013-05-25 05:41:00,
2013-05-24 21:46:00,47.4,41.5,29.98,SSW,202,3.5,3.5,80,0.00,CLR,,0.00,35.0,WeatherDisplay:10.37,2013-05-25 05:46:00,
2013-05-24 21:51:00,47.1,41.6,29.98,SSW,199,2.3,2.3,81,0.00,CLR,,0.00,42.0,WeatherDisplay:10.37,2013-05-25 05:51:00,
2013-05-24 21:56:00,47.0,41.8,29.98,SSW,194,2.3,2.3,82,0.00,CLR,,0.00,35.0,WeatherDisplay:10.37,2013-05-25 05:56:00,
2013-05-24 22:01:00,46.8,41.6,29.98,SSW,198,0.0,0.0,82,0.00,FEW,,0.00,28.0,WeatherDisplay:10.37,2013-05-25 06:01:00,
2013-05-24 22:06:00,46.5,41.6,29.98,SSW,195,4.6,4.6,83,0.00,FEW,,0.00,25.0,WeatherDisplay:10.37,2013-05-25 06:06:00,
2013-05-24 22:11:00,46.2,41.3,29.98,South,182,4.6,4.6,83,0.00,FEW,,0.00,23.0,WeatherDisplay:10.37,2013-05-25 06:11:00,
2013-05-24 22:16:00,45.9,41.3,29.98,SSW,205,3.5,3.5,84,0.00,FEW,,0.00,21.0,WeatherDisplay:10.37,2013-05-25 06:16:00,
2013-05-24 22:21:00,45.6,41.0,29.98,South,181,6.0,6.0,84,0.00,FEW,,0.00,19.0,WeatherDisplay:10.37,2013-05-25 06:21:00,
2013-05-24 22:26:00,45.4,41.2,29.99,SSW,197,5.8,5.8,85,0.00,FEW,,0.00,18.0,WeatherDisplay:10.37,2013-05-25 06:26:00,
2013-05-24 22:31:00,45.2,41.3,29.99,South,188,4.6,4.6,86,0.00,FEW,,0.00,16.0,WeatherDisplay:10.37,2013-05-25 06:31:00,
2013-05-24 22:36:00,45.0,41.1,29.99,SSW,199,3.5,3.5,86,0.00,FEW,,0.00,14.0,WeatherDisplay:10.37,2013-05-25 06:36:00,
2013-05-24 22:41:00,44.9,41.0,29.99,SSW,194,3.5,3.5,86,0.00,FEW,,0.00,12.0,WeatherDisplay:10.37,2013-05-25 06:41:00,
2013-05-24 22:46:00,44.7,41.1,29.99,SSW,201,3.0,3.0,87,0.00,FEW,,0.00,12.0,WeatherDisplay:10.37,2013-05-25 06:46:00,
2013-05-24 22:51:00,44.6,41.0,29.99,South,184,3.5,3.5,87,0.00,FEW,,0.00,11.0,WeatherDisplay:10.37,2013-05-25 06:51:00,
2013-05-24 22:56:00,44.5,40.9,29.99,SSW,195,3.5,3.5,87,0.00,FEW,,0.00,9.0,WeatherDisplay:10.37,2013-05-25 06:56:00,
2013-05-24 23:01:00,44.5,40.9,29.99,SSW,196,1.2,1.2,87,0.00,BKN,,0.00,7.0,WeatherDisplay:10.37,2013-05-25 07:01:00,
2013-05-24 23:06:00,44.4,40.8,29.99,SSW,202,3.5,3.5,87,0.00,BKN,,0.00,5.0,WeatherDisplay:10.37,2013-05-25 07:06:00,
2013-05-24 23:11:00,44.5,41.2,29.99,South,190,3.5,3.5,88,0.00,BKN,,0.00,0.0,WeatherDisplay:10.37,2013-05-25 07:11:00,
2013-05-24 23:16:00,44.5,40.9,29.98,SSW,203,3.5,3.5,87,0.00,BKN,,0.00,0.0,WeatherDisplay:10.37,2013-05-25 07:16:00,
2013-05-24 23:21:00,44.5,40.9,29.99,South,169,3.5,3.5,87,0.00,BKN,,0.00,0.0,WeatherDisplay:10.37,2013-05-25 07:21:00,
2013-05-24 23:26:00,44.5,40.9,29.99,South,189,1.2,1.2,87,0.00,BKN,,0.00,0.0,WeatherDisplay:10.37,2013-05-25 07:26:00,
2013-05-24 23:31:00,44.5,40.9,29.99,SSW,200,4.6,4.6,87,0.00,BKN,,0.00,0.0,WeatherDisplay:10.37,2013-05-25 07:31:00,
2013-05-24 23:36:00,44.5,40.9,29.99,South,191,3.0,3.0,87,0.00,BKN,,0.00,0.0,WeatherDisplay:10.37,2013-05-25 07:36:00,
2013-05-24 23:41:00,44.5,40.9,29.99,SSW,196,4.6,4.6,87,0.00,BKN,,0.00,0.0,WeatherDisplay:10.37,2013-05-25 07:41:00,
2013-05-24 23:46:00,44.4,40.5,29.99,SSW,205,3.5,3.5,86,0.00,BKN,,0.00,0.0,WeatherDisplay:10.37,2013-05-25 07:46:00,
2013-05-24 23:51:00,44.2,40.6,29.99,SSW,205,0.0,0.0,87,0.00,BKN,,0.00,0.0,WeatherDisplay:10.37,2013-05-25 07:51:00,
2013-05-24 23:56:00,44.0,40.4,29.99,SSW,209,1.2,1.2,87,0.00,BKN,,0.00,0.0,WeatherDisplay:10.37,2013-05-25 07:56:00,